Location: Harmony
(28.2000°N, 81.1500°W)
Time: 16:39:19
(UTC-04:00)

Daily predictions for brighter satellites

Satellite Brightness Start Highest point End
(mag) Time Altitude Azimuth Time Altitude Azimuth Time Altitude Azimuth
H-2A R/B 3.7 19:27:05 10° W 19:31:41 87° S 20:09:25 10° ESE
H-2A R/B 3.7 19:27:05 10° W 19:31:41 87° S 20:09:26 10° ESE
Cosmos 1933 4.4 20:18:49 10° SE 20:22:06 24° E 20:25:24 10° NE
Cosmos 2263 Rocket 3.2 20:24:05 10° N 20:28:51 29° ENE 20:33:38 10° SE
Cosmos 2242 Rocket 3.6 20:26:16 10° S 20:30:44 69° E 20:35:11 10° NNE
BREEZE-M DEB (TANK) 3.9 20:28:04 10° WNW 20:30:45 42° SW 20:36:57 10° SSE
H-2A R/B (2) 3.9 20:27:32 10° WSW 20:31:27 32° S 20:45:16 10° SE
USA 229 DEB 3.7 20:25:37 10° SSW 20:32:17 62° ESE 20:39:02 10° NE
USA 229 3.7 20:25:45 10° SSW 20:32:24 61° ESE 20:39:09 10° NE
Cosmos 1892 4.3 20:29:27 10° NNW 20:32:59 38° W 20:36:33 10° SSW
Cosmos 2279 Rocket 4.2 20:28:59 10° SSE 20:34:59 52° E 20:40:58 10° NNE
Cosmos 2322 Rocket 3.7 20:31:52 10° SW 20:37:08 42° WNW 20:42:26 10° N
Cosmos 1862 4.3 20:35:33 10° NNE 20:39:03 28° E 20:42:32 10° SE
ATLAS CENTAUR R/B 3.3 20:36:55 10° NW 20:40:12 49° SW 20:48:42 10° SSE
Cosmos 1408 2.7 20:39:14 10° N 20:42:47 50° E 20:46:18 10° SSE
HJ-1C 3.5 20:39:23 10° S 20:42:49 86° WSW 20:46:17 10° NNW
Cosmos 2360 Rocket 2.1 20:37:47 10° SSW 20:43:24 74° ESE 20:49:03 10° NNE
FALCON 9 R/B 2.6 20:42:40 10° WNW 20:45:14 22° N 20:47:06 10° NE
Tiangong 1 2.4 20:44:11 10° S 20:46:14 18° SE 20:46:39 17° SE
Cosmos 1627 Rocket 4.4 20:40:39 10° N 20:46:46 68° E 20:52:50 10° SSE
Cosmos 1825 2.2 20:43:33 10° N 20:47:17 58° E 20:51:02 10° SSE
H-2A R/B 2.7 20:47:03 10° SSE 20:50:56 89° E 20:54:48 10° N
COSMOS 2428 3.3 20:47:43 10° SSE 20:52:48 35° ESE 20:57:55 10° NE
ATLAS 5 CENTAUR R/B 3.2 20:50:06 10° N 20:55:47 36° ENE 21:00:01 18° ESE
Resurs 01 Rocket 1.6 20:52:04 10° SSE 20:56:30 79° ENE 21:00:57 10° N
Helios 1A 3.9 20:58:29 20° ESE 21:00:37 31° ENE 21:04:23 10° N
Cosmos 1939 Rocket 4.3 21:00:53 19° E 21:01:43 20° ENE 21:04:41 10° NNE
CZ-4B DEB 4.3 21:06:09 19° ENE 21:06:09 19° ENE 21:08:01 10° NNE
Cosmos 2322 3.8 21:00:18 10° SSW 21:06:01 81° WNW 21:11:44 10° NNE
Atlas Centaur 2 2.7 21:00:42 10° W 21:06:40 73° N 21:12:50 16° E
Okean 1-7 4.2 21:08:36 23° E 21:08:45 23° E 21:12:12 10° NE
Cosmos 1733 Rocket 3.0 21:11:04 10° N 21:15:32 87° W 21:19:29 13° S
Sich 1 Rocket 4.3 21:12:26 10° NNE 21:16:34 35° E 21:17:37 31° ESE
OAO 3 Rocket 3.4 21:17:10 10° WNW 21:22:00 66° NNE 21:24:12 32° E
Meteor 2-10 Rocket 3.8 21:16:49 10° S 21:22:39 89° W 21:28:27 10° N
CZ-2D R/B 4.1 21:20:02 10° S 21:23:44 50° W 21:27:31 10° NNW
Cosmos 2237 Rocket 4.2 21:26:55 12° ENE 21:26:55 12° ENE 21:27:38 10° ENE
Cosmos 2026 Rocket 4.4 21:18:42 10° NNW 21:24:44 61° W 21:30:41 10° S
Spot 2 Rocket 4.1 21:19:45 10° S 21:24:44 57° W 21:29:44 10° NNW
Cosmos 2333 4.1 21:22:44 10° S 21:28:22 69° ESE 21:34:05 10° NNE
Cosmos 968 Rocket 3.6 21:23:40 10° N 21:28:47 54° ENE 21:30:31 37° SE
Cosmos 1844 Rocket 4.2 21:25:32 10° NNE 21:29:21 19° ENE 21:29:48 19° ENE
TRAILBLAZER 4.4 21:26:49 10° SSW 21:31:20 81° ESE 21:35:53 10° NNE
Cosmos 2333 Rocket 2.8 21:32:00 33° E 21:32:00 33° E 21:36:52 10° NE
Lacrosse 4 Rocket 3.9 21:36:01 10° WNW 21:39:14 20° WSW 21:42:29 10° SSW
Helios 1B rocket 3.6 21:37:24 10° N 21:41:17 42° WNW 21:45:09 10° SW
Cosmos 1703 Rocket 3.6 21:38:38 22° S 21:41:27 82° W 21:45:52 10° N
Envisat 2.9 21:42:56 36° S 21:45:03 87° WSW 21:50:09 10° NNW
Cosmos 2219 Rocket 2.1 21:42:14 27° S 21:45:08 59° ESE 21:50:39 10° NNE
SAR-Lupe-4 3.9 21:47:47 56° SW 21:48:05 59° W 21:51:37 10° NNW
USA 186 3.8 21:48:25 18° WSW 21:49:05 20° W 21:51:19 10° NW
Gbstr 26 Del rocket 4.3 21:49:47 10° SW 21:56:59 89° SE 22:05:08 10° NE
NOSS 0 Rocket 3.9 22:00:21 57° ESE 22:00:21 57° ESE 22:06:18 10° NNE
SEDSat Delta rocket 3.3 21:55:55 10° WNW 22:00:58 87° NNE 22:01:31 73° E
ERS-1 Rocket 3.1 22:01:58 57° ENE 22:01:58 57° ENE 22:06:34 10° N
H-2A R/B 4.1 22:06:42 13° NE 22:06:42 13° NE 22:07:42 10° NNE
Palapa 6 Rocket 4.5 22:00:04 10° WSW 22:06:58 50° S 22:07:26 50° SSE
Sakura Rocket 3.7 22:05:04 10° W 22:07:35 43° W 22:07:35 43° W
Cosmos 1867 3.8 22:04:55 10° NW 22:10:16 61° WSW 22:10:59 56° SSW
Milstar 3 2.9 22:03:11 10° W 22:10:51 55° SSW 22:11:49 50° S
Cosmos 1570 Rocket 3.9 22:11:36 84° NNE 22:11:36 84° NNE 22:16:42 10° NNE
Cosmos 2263 Rocket 3.9 22:08:00 10° NW 22:12:36 27° WSW 22:15:41 17° SSW
Cosmos 2266 Rocket 4.1 22:08:05 10° N 22:14:25 75° W 22:16:21 47° SSW
NOSS 3-1 (C) 4.0 22:10:00 10° SW 22:15:25 51° WNW 22:21:22 10° NNE
Cosmos 2208 Rocket 4.2 22:25:08 70° NNW 22:25:08 70° NNW 22:30:02 10° NNE
NOSS 3-1 (A) 4.0 22:27:46 10° SW 22:33:15 52° WNW 22:39:13 10° NNE
ARGOS 4.0 22:41:15 42° N 22:41:15 42° N 22:44:49 10° N
ATLAS 5 CENTAUR R/B 3.7 22:34:53 10° NW 22:40:26 32° WSW 22:41:36 30° SW
Cosmos 1980 4.3 22:42:14 51° N 22:42:14 51° N 22:46:31 10° NNE
Atlas Centaur 2 2.9 22:49:33 10° WNW 22:55:28 69° W 22:55:28 69° W
Cosmos 2237 Rocket 3.5 23:08:37 38° NW 23:08:37 38° NW 23:12:49 10° N
Cosmos 1844 Rocket 4.2 23:08:08 10° NW 23:11:29 32° WNW 23:11:29 32° WNW
Cosmos 2333 Rocket 4.1 23:13:47 20° W 23:15:58 25° WNW 23:20:38 10° N
USA 234 3.8 23:17:39 54° NNW 23:17:39 54° NNW 23:22:32 10° NW
CZ-4C R/B 3.5 23:11:21 10° NNW 23:17:07 51° NNE 23:17:07 51° NNE
Cosmos 2278 Rocket 3.9 23:14:46 10° NNW 23:17:25 29° N 23:17:25 29° N
